Retour au catalogue

STARLINK-35503

ActifCommunicationsVLEO
NORAD 66245·PAYLOAD·🇺🇸 United States

Lancé Oct 29, 2025 depuis Cape Canaveral Space Force Station

Loading…

Prochains Passages (prochaines 24 heures)

TLE

FraisSource: CelesTrak SupGP

Époque: Sep 14, 2026, 22:56 UTC

1 66245C 25245M   26257.95604167 -.00036053  00000+0 -10653-2 0  2573
2 66245  53.1570 123.6082 0001286  81.8923 164.6490 15.34404332    16

Suivez STARLINK-35503 en temps réel avec AllMySat

Download on the App Store